Regional Weather Roundup
Issued by NWS

Home | Current Version | Previous Version | Graphics & Text | Print | Product List | Glossary On
Versions: 1 2 3 4 5 6 7 8 9 10 11 12 13 14 15 16 17 18 19 20 21 22 23 24 25 26 27
000
ASUS45 KTFX 261510
RWRMT
MONTANA REGIONAL WEATHER ROUNDUP
NATIONAL WEATHER SERVICE GREAT FALLS MT
900 AM MDT WED APR 26 2017

NOTE: "FAIR" INDICATES FEW OR NO CLOUDS BELOW 12000 FEET WITH NO
SIGNIFICANT WEATHER AND/OR OBSTRUCTIONS TO VISIBILITY.

MTZ001>007-043-261600-
WEST OF THE DIVIDE

CITY           SKY/WX    TMP DP  RH WIND       PRES   REMARKS
KALISPELL      LGT RAIN  40  40 100 CALM      29.71S
MISSOULA       LGT RAIN  42  40  92 CALM      29.74F
BUTTE          CLOUDY    40  30  67 CALM      29.73F
MULLAN PASS    SNOW      30  30 100 VRB3      29.67S VSB 1/2
ANACONDA         N/A     39  32  75 SW7       29.73S
DEER LODGE       N/A     39  34  81 CALM      29.75S
EUREKA           N/A     41  36  81 SE10      29.71S
HAMILTON         N/A     45  36  70 S6        29.71F
LIBBY            N/A     41  39  93 CALM      29.70F
$$

MTZ008-052>055-261600-
SOUTHWEST MONTANA

CITY           SKY/WX    TMP DP  RH WIND       PRES   REMARKS
BOZEMAN        PTSUNNY   43  36  76 CALM      29.75F
DILLON         MOSUNNY   41  30  65 SW13      29.74F
W YELLOWSTONE  CLOUDY    32  28  86 SW14      29.80S WCI  22
ENNIS          PTSUNNY   41  34  75 S13       29.81S
THREE FORKS      N/A     43 -16   8 CALM      29.77F
$$

MTZ009-010-012-014-046-048-049-054-261600-
EAST SLOPES AND CENTRAL MONTANA

CITY           SKY/WX    TMP DP  RH WIND       PRES   REMARKS
CUT BANK       CLOUDY    37  36  96 S8        29.70S WCI  31
GREAT FALLS    PTSUNNY   42  36  79 S10       29.71F
MALMSTROM AFB  MOSUNNY   40  37  86 SE3       29.72F
HELENA         PTSUNNY   40  35  83 CALM      29.73F
AUGUSTA        PTSUNNY   34  35 100 S3        29.69F
BOWMANS CRNR   CLOUDY    38  34  86 S13       29.68F WCI  30
CHOTEAU          N/A     37  37 100 S7        29.71F
FAIRFIELD      PTSUNNY   38  35  92 SE5       29.69F
POWER            N/A     39  37  93 SE12      29.70F WCI  31
RAYNESFORD     PTSUNNY   37  35  90 E10       29.72F WCI  30
ULM            PTSUNNY   44  39  82 S9        29.71F
$$

MTZ011-013-016-021-045-047-050-051-261600-
NORTH CENTRAL MONTANA

CITY           SKY/WX    TMP DP  RH WIND       PRES   REMARKS
HAVRE          PTSUNNY   45  37  73 E7        29.75F
LEWISTOWN      PTSUNNY   34  32  92 E8        29.74S WCI  27
N BAR RANCH    CLOUDY    34  30  86 CALM      29.78F
CHINOOK          N/A     43  34  70 E10G17    29.77F
DENTON         PTSUNNY   36  35  96 MISG      29.73S
FORT BENTON      N/A     39  36  87 MISG      29.75F
GEYSER         PTSUNNY   34  34  99 CALM      29.73F
GRASS RANGE    PTSUNNY   31  30  96 CALM      29.74S
JUDITH GAP     CLOUDY    35  33  94 S13       29.74F WCI  26
STANFORD         N/A     33  33 100 SE3       29.72F
WINIFRED       LGT RAIN  36 N/A N/A E7        29.76S WCI  30
$$

MTZ017>020-022>027-061-062-261600-
NORTHEAST MONTANA

CITY           SKY/WX    TMP DP  RH WIND       PRES   REMARKS
GLASGOW        CLOUDY    36  24  62 SE16      29.87F WCI  26
JORDAN           N/A     37  27  67 SE10      29.85F WCI  30
WOLF POINT     CLOUDY    37  26  64 E8        29.92F WCI  31
MALTA          CLOUDY    39  27  60 S13       29.84S WCI  32
PLENTYWOOD       N/A     34  21  60 SE9       29.93F WCI  26
POPLAR           N/A     36  25  64 E9        29.92F WCI  29
$$

MTZ028>42-056>058-261600-
SOUTHCENTRAL AND SOUTHEAST MONTANA

CITY           SKY/WX    TMP DP  RH WIND       PRES   REMARKS
BAKER          CLOUDY    33  23  66 NE7       29.88F WCI  27
BILLINGS       CLOUDY    36  30  79 NE3       29.80S
LIVINGSTON     CLOUDY    38  36  92 CALM      29.75F
MILES CITY     CLOUDY    35  25  66 SE6       29.87F WCI  30
BIG TIMBER     FOG       34  34 100 CALM      29.79F VSB 0
EKALAKA          N/A     31  22  69 NE3       29.84
LAUREL           N/A     36  23  59 CALM      29.80F
ROUNDUP          N/A     36  28  73 SE3       29.74S
$$

REGIONAL REPORTS...DAKOTAS

CITY           SKY/WX    TMP DP  RH WIND       PRES   REMARKS
WILLISTON      SUNNY     36  21  54 NE6       29.94F WCI  31
MINOT          MOSUNNY   36  23  59 N14       29.93S WCI  27
DICKINSON      SUNNY     35  22  58 N10       29.87F WCI  27
BEACH          CLOUDY    36  25  64 VRB5      29.91F
TIOGA            N/A     30  25  80 E8        29.95S WCI  23
WATFORD CITY     N/A     32  23  69 VRB6      29.92F WCI  26
BISMARCK       CLOUDY    34  24  67 N14       29.88F WCI  25
GRAND FORKS    CLOUDY    31  24  75 NE21      29.84S WCI  18
FARGO          LGT SNOW  29  26  89 N20       29.76F FOG     WCI  16
BUFFALO SD       N/A     33  24  69 NE8       29.80S WCI  26
RAPID CITY     CLOUDY    29  23  78 NW14      29.88R WCI  18
$$

REGIONAL REPORTS...WYOMING/IDAHO/WASHINGTON

CITY           SKY/WX    TMP DP  RH WIND       PRES   REMARKS
GILLETTE       CLOUDY    26  26 100 S6        29.80F WCI  19
SHERIDAN       CLOUDY    29  26  89 W3        29.80F
CODY           MOSUNNY   41  35  79 S3        29.76F
YELLOWSTONE LA   N/A     28  26  92 CALM      29.81S
IDAHO FALLS    CLOUDY    42  35  76 SW14      29.84R
SALMON         CLOUDY    43  36  75 N6        29.77S
BOISE          CLOUDY    47  42  83 E10       29.84S
SPOKANE        CLOUDY    45  41  86 SW12      29.70S
$$

REGIONAL REPORTS...ALBERTA

CITY           SKY/WX    TMP DP  RH WIND       PRES   REMARKS
EDMONTON       CLOUDY    30  25  80 SE13      29.79F WCI  20
CALGARY        CLOUDY    30  27  86 S7        29.70S FOG     WCI  23
LETHBRIDGE     LGT SNOW  32  32 100 SE5       29.72F FOG
MEDICINE HAT   SNOWSHWR  37  36  93 S7        29.76S
WATERTON GATE    N/A     34  30  86 CALM        N/A
CARDSTON         N/A     34  32  93 SE5         N/A
MILK RIVER       N/A     34  32  93 E6          N/A  WCI  29
ONEFOUR          N/A     34  34 100 E7          N/A  WCI  28
$$

REGIONAL REPORTS...SASKATCHEWAN

CITY           SKY/WX    TMP DP  RH WIND       PRES   REMARKS
SWIFT CURRENT  CLOUDY    34  28  80 SE23      29.81F WCI  22
REGINA         PTSUNNY   30  19  64 SE10      29.97F WCI  21
SASKATOON      FLURRIES  32  28  86 SE16G22   29.96F WCI  21
ROCKGLEN         N/A     32  25  74 SE10        N/A  WCI  24
$$




USA.gov is the U.S. government's official web portal to all federal, state and local government web resources and services.